Location: Unspecified
(0.0000°N, 0.0000°E)
Time: 06:47:15
(UTC+00:00)

Amsat-Oscar-6 - Pass Details

Date: 03 May 2019
Orbit: 1448 x 1455 km, 101.8° (Epoch: 20 May)

Event Time Altitude Azimuth Distance (km) Brightness Sun altitude
Rises 02:07:12 0° 41° (NE) 4,537 ? -54.3°
Reaches altitude 10° 02:10:31 10° 53° (NE) 3,562 ? -53.6°
Enters shadow 02:14:58 24° 83° (E) 2,627 ? -52.6°
